When you browse on this site, cookies collect data to enhance your experience and personalize the content and advertising you see.
Visit our Privacy Policy to learn more. By continuing to use the site, you agree to this use of cookies and data.
  • In Czech Republic
  • List of Countries
  • For 7 days
  • Water Temperature
  • Weather Map
  • Weather Widgets
  • user-avatar
    Login

    Hourly Weather Innsbruck

    Today, 3 April, Friday

    Time Temperature Precipitation Wind Pressure Humidity
    00:00 -7°C° 0 mm 1 mps 588 mmHg 82%
    01:00 -8°C° 0 mm 1 mps 588 mmHg 80%
    02:00 -8°C° 0 mm 1 mps 588 mmHg 82%
    03:00 -8°C° 0 mm 1 mps 588 mmHg 83%
    04:00 -8°C° 0 mm 1 mps 588 mmHg 84%
    05:00 -7°C° 0.1 mm 1 mps 588 mmHg 85%
    06:00 -7°C° 0.1 mm 1 mps 589 mmHg 87%
    07:00 -4°C° 0 mm 1 mps 590 mmHg 88%
    08:00 -3°C° 0 mm 1 mps 591 mmHg 85%
    09:00 -1°C° 0 mm 1 mps 591 mmHg 82%
    10:00 0°C° 0 mm 1 mps 592 mmHg 79%
    11:00 +1°C° 0.1 mm 1 mps 592 mmHg 77%
    12:00 +1°C° 0.1 mm 1 mps 592 mmHg 76%
    13:00 +2°C° 0 mm 1 mps 593 mmHg 73%
    14:00 +1°C° 0.1 mm 1 mps 593 mmHg 74%
    15:00 -1°C° 0.1 mm 2 mps 592 mmHg 75%
    16:00 -1°C° 0.1 mm 2 mps 592 mmHg 75%
    17:00 0°C° 0.1 mm 1 mps 592 mmHg 81%
    18:00 -2°C° 0.1 mm 1 mps 592 mmHg 87%
    19:00 -3°C° 0.1 mm 1 mps 592 mmHg 93%
    20:00 -3°C° 0.1 mm 1 mps 592 mmHg 94%
    21:00 -4°C° 0.1 mm 1 mps 592 mmHg 94%
    22:00 -4°C° 0.1 mm 1 mps 593 mmHg 95%
    23:00 -6°C° 0 mm 1 mps 593 mmHg 94%

    Tomorrow, 4 April, Saturday

    Time Temperature Precipitation Wind Pressure Humidity
    00:00 -6°C° 0 mm 1 mps 593 mmHg 93%
    01:00 -6°C° 0 mm 1 mps 593 mmHg 92%
    02:00 -7°C° 0 mm 1 mps 593 mmHg 89%
    03:00 -7°C° 0 mm 1 mps 593 mmHg 87%
    04:00 -7°C° 0 mm 1 mps 593 mmHg 84%
    05:00 -7°C° 0 mm 1 mps 594 mmHg 81%
    06:00 -6°C° 0 mm 1 mps 594 mmHg 78%
    07:00 -4°C° 0 mm 1 mps 595 mmHg 75%
    08:00 -2°C° 0 mm 1 mps 595 mmHg 69%
    09:00 0°C° 0 mm 1 mps 596 mmHg 62%
    10:00 +2°C° 0 mm 1 mps 597 mmHg 56%
    11:00 +3°C° 0 mm 1 mps 598 mmHg 54%
    12:00 +4°C° 0 mm 1 mps 598 mmHg 52%
    13:00 +5°C° 0 mm 1 mps 598 mmHg 50%
    14:00 +5°C° 0 mm 1 mps 598 mmHg 52%
    15:00 +5°C° 0 mm 1 mps 598 mmHg 54%
    16:00 +5°C° 0 mm 1 mps 598 mmHg 56%
    17:00 +3°C° 0 mm 1 mps 597 mmHg 65%
    18:00 0°C° 0 mm 1 mps 596 mmHg 74%
    19:00 -3°C° 0 mm 0 mps 596 mmHg 83%
    20:00 -2°C° 0 mm 1 mps 596 mmHg 83%
    21:00 -2°C° 0 mm 1 mps 596 mmHg 83%
    22:00 -3°C° 0 mm 1 mps 597 mmHg 83%
    23:00 -3°C° 0 mm 1 mps 597 mmHg 82%

    Day after tomorrow, 5 April, Sunday

    Time Temperature Precipitation Wind Pressure Humidity
    00:00 -3°C° 0 mm 1 mps 597 mmHg 81%
    01:00 -5°C° 0 mm 2 mps 597 mmHg 81%
    02:00 -5°C° 0 mm 2 mps 597 mmHg 80%
    03:00 -5°C° 0 mm 2 mps 597 mmHg 80%
    04:00 -5°C° 0 mm 2 mps 597 mmHg 80%
    05:00 -5°C° 0 mm 2 mps 597 mmHg 77%
    06:00 -4°C° 0 mm 2 mps 597 mmHg 74%
    07:00 -4°C° 0 mm 2 mps 598 mmHg 71%
    08:00 -1°C° 0 mm 2 mps 599 mmHg 66%
    09:00 +3°C° 0 mm 1 mps 599 mmHg 60%
    10:00 +5°C° 0 mm 1 mps 600 mmHg 54%
    11:00 +6°C° 0 mm 1 mps 600 mmHg 51%
    12:00 +7°C° 0 mm 1 mps 601 mmHg 48%
    13:00 +7°C° 0 mm 2 mps 601 mmHg 46%
    14:00 +7°C° 0 mm 2 mps 600 mmHg 46%
    15:00 +7°C° 0 mm 2 mps 600 mmHg 47%
    16:00 +7°C° 0 mm 2 mps 600 mmHg 48%
    17:00 +4°C° 0 mm 2 mps 599 mmHg 58%
    18:00 +2°C° 0 mm 2 mps 598 mmHg 68%
    19:00 -1°C° 0 mm 2 mps 597 mmHg 77%
    20:00 -2°C° 0 mm 3 mps 597 mmHg 79%
    21:00 -2°C° 0 mm 3 mps 597 mmHg 80%
    22:00 -4°C° 0 mm 3 mps 597 mmHg 81%
    23:00 -4°C° 0 mm 3 mps 597 mmHg 83%

    6 April, Monday

    Time Temperature Precipitation Wind Pressure Humidity
    00:00 -4°C° 0 mm 3 mps 597 mmHg 84%
    01:00 -5°C° 0 mm 3 mps 597 mmHg 85%
    02:00 -5°C° 0 mm 3 mps 597 mmHg 84%
    03:00 -5°C° 0 mm 3 mps 597 mmHg 83%
    04:00 -5°C° 0 mm 3 mps 597 mmHg 82%
    05:00 -4°C° 0 mm 2 mps 598 mmHg 79%
    06:00 -3°C° 0 mm 2 mps 598 mmHg 75%
    07:00 -3°C° 0 mm 2 mps 598 mmHg 71%
    08:00 +1°C° 0 mm 2 mps 599 mmHg 62%
    09:00 +3°C° 0 mm 2 mps 600 mmHg 53%
    10:00 +7°C° 0 mm 1 mps 601 mmHg 44%
    11:00 +7°C° 0 mm 2 mps 601 mmHg 41%
    12:00 +8°C° 0 mm 2 mps 602 mmHg 37%
    13:00 +9°C° 0 mm 2 mps 602 mmHg 34%
    14:00 +9°C° 0 mm 2 mps 602 mmHg 35%
    15:00 +9°C° 0 mm 2 mps 602 mmHg 37%
    16:00 +9°C° 0 mm 2 mps 602 mmHg 38%
    17:00 +7°C° 0 mm 1 mps 601 mmHg 50%
    18:00 +4°C° 0 mm 1 mps 600 mmHg 61%
    19:00 +2°C° 0 mm 1 mps 599 mmHg 73%
    20:00 +1°C° 0 mm 1 mps 599 mmHg 74%
    21:00 +1°C° 0 mm 1 mps 599 mmHg 75%
    22:00 0°C° 0 mm 1 mps 600 mmHg 76%
    23:00 0°C° 0 mm 1 mps 600 mmHg 77%

    7 April, Tuesday

    Time Temperature Precipitation Wind Pressure Humidity
    00:00 0°C° 0 mm 1 mps 600 mmHg 78%
    01:00 -1°C° 0 mm 1 mps 600 mmHg 78%
    02:00 -1°C° 0 mm 1 mps 600 mmHg 79%
    03:00 -1°C° 0 mm 1 mps 600 mmHg 80%
    04:00 -1°C° 0 mm 1 mps 600 mmHg 81%
    05:00 0°C° 0 mm 1 mps 601 mmHg 80%
    06:00 +1°C° 0 mm 1 mps 601 mmHg 80%
    07:00 +2°C° 0 mm 1 mps 602 mmHg 79%
    08:00 +3°C° 0 mm 1 mps 602 mmHg 70%
    09:00 +5°C° 0 mm 1 mps 603 mmHg 62%
    10:00 +6°C° 0 mm 2 mps 604 mmHg 53%
    11:00 +7°C° 0 mm 2 mps 604 mmHg 51%
    12:00 +8°C° 0 mm 2 mps 604 mmHg 48%
    13:00 +8°C° 0 mm 2 mps 605 mmHg 46%
    14:00 +8°C° 0 mm 2 mps 604 mmHg 48%
    15:00 +8°C° 0 mm 2 mps 604 mmHg 50%
    16:00 +8°C° 0 mm 2 mps 603 mmHg 52%
    17:00 +5°C° 0 mm 2 mps 603 mmHg 63%
    18:00 +4°C° 0 mm 1 mps 602 mmHg 74%
    19:00 +2°C° 0 mm 1 mps 601 mmHg 85%
    20:00 +2°C° 0 mm 1 mps 601 mmHg 87%
    21:00 +1°C° 0 mm 1 mps 601 mmHg 90%
    22:00 -1°C° 0 mm 0 mps 601 mmHg 92%
    23:00 -1°C° 0 mm 0 mps 601 mmHg 92%

    8 April, Wednesday

    Time Temperature Precipitation Wind Pressure Humidity
    00:00 -1°C° 0 mm 0 mps 601 mmHg 92%
    01:00 -1°C° 0 mm 0 mps 601 mmHg 92%
    02:00 -1°C° 0 mm 0 mps 601 mmHg 92%
    03:00 -2°C° 0 mm 0 mps 600 mmHg 92%
    04:00 -2°C° 0 mm 0 mps 600 mmHg 92%
    05:00 -1°C° 0 mm 0 mps 601 mmHg 89%
    06:00 0°C° 0 mm 0 mps 601 mmHg 85%
    07:00 +1°C° 0 mm 0 mps 601 mmHg 82%
    08:00 +4°C° 0 mm 1 mps 602 mmHg 73%
    09:00 +6°C° 0 mm 1 mps 603 mmHg 65%
    10:00 +8°C° 0 mm 1 mps 604 mmHg 56%
    11:00 +9°C° 0 mm 1 mps 604 mmHg 54%
    12:00 +9°C° 0 mm 1 mps 604 mmHg 51%
    13:00 +9°C° 0 mm 2 mps 604 mmHg 49%
    14:00 +10°C° 0.1 mm 1 mps 603 mmHg 52%
    15:00 +9°C° 0.1 mm 1 mps 603 mmHg 56%
    16:00 +9°C° 0.1 mm 1 mps 602 mmHg 59%
    17:00 +7°C° 0.2 mm 1 mps 602 mmHg 70%
    18:00 +5°C° 0.2 mm 1 mps 601 mmHg 80%
    19:00 +2°C° 0.2 mm 0 mps 600 mmHg 90%
    20:00 +3°C° 0 mm 1 mps 600 mmHg 90%
    21:00 +2°C° 0 mm 1 mps 600 mmHg 90%
    22:00 +2°C° 0 mm 1 mps 600 mmHg 91%
    23:00 +1°C° 0 mm 1 mps 600 mmHg 91%
    Show more